Orbital Elements at Epoch 2459200.5 (2020-Dec-17.0) TDB
Reference: JPL 7 (heliocentric ecliptic J2000)
Element | Value | Uncertainty (1-sigma) | Units |
e | .1006905181820005 | 1.1917e-07 | |
a | 3.00619613054836 | 4.5034e-08 | au |
q | 2.703500684406721 | 3.4358e-07 | au |
i | 11.73325242290172 | 1.044e-05 | deg |
node | 297.7069722629552 | 6.7921e-05 | deg |
peri | 19.68931755972946 | 9.3943e-05 | deg |
M | 265.4499014733191 | 6.7288e-05 | deg |
tp | 2459700.515974090084 (2022-May-01.01597409) | 0.00036162 | TDB |
period | 1903.813464791207 5.21 | 4.2779e-05 1.171e-07 | d yr |
n | .1890941558392022 | 4.249e-09 | deg/d |
Q | 3.30889157669 | 4.9568e-08 | au |
|
| | Orbit Determination Parameters
Additional Information
|